Simultaneous Nadir Overpasses (SNOs) Predictions

Prediction of SNOs between GOES-15 and FY3D Satellite Orbit:

Table of predicted SNOs for the next 14.0 days since TLE Epoch: 5/20/2023
Index Date Time (GOES-15) GOES-15 Lat,Lon FY3D Lat,Lon Distance(km) Time Diff (sec)
1 05/22/2023 12:11:16 0.01,-151.16 0.01,-151.21 5.04 80
2 05/25/2023 00:15:25 0.01,-152.25 0.04,-152.22 5.13 80
3 05/27/2023 12:16:43 -0.01,-153.36 -0.04,-153.18 20.86 80
4 05/30/2023 00:20:51 0.02,-154.43 0.06,-154.18 28.85 80
5 06/01/2023 12:24:51 -0.04,-155.53 -0.12,-155.15 43.13 80
